KOREASAT 5 (MUGUNGWHA 5)

Last updated on Mon Oct 20 2025 00:02:46 GMT+0000 (Coordinated Universal Time)

1 29349U 06034A 25292.28967733 -.00000359 00000+0 00000+0 0 9991 2 29349 1.1566 86.2473 0001989 157.4285 1.7034 1.00272717 38909
UTC large
Height (km)
Speed (km/s)
/
Latitude / Longitude
Inclination (degrees)
Orbital Period (minutes)
Azimuth
Elevation
Range (km)
Doppler Factor

Next 0 passes for location: London (51.5072 / 0.1276)

Sorry there are no passes over London.